EW6553 Weather Reports


time (UTC)temp
F
wind
direction
speed
knots
gust
knots
rain 1hr
in
rain 24hr
in
rain mn
in
humidity
%
barometer
mb
20260506014301 71 10 2.6 7.8 0.00 0.00 0.00 69 1006.4
20260506013803 71 346 2.6 7.8 0.00 0.00 0.00 68 1006.3
20260506013303 71 338 2.6 7.8 0.00 0.00 0.00 68 1006.4
20260506012800 72 11 2.6 7.8 0.00 0.00 0.00 68 1006.4
20260506012254 72 23 2.6 7.8 0.00 0.00 0.00 68 1006.3
20260506012241 72 315 1.7 7.0 0.00 0.00 0.00 68 1006.1
20260506011244 73 76 1.7 7.0 0.00 0.00 0.00 67 1006.1
20260506011018 73 5 1.7 5.2 0.00 0.00 0.00 67 1006.1
20260506010245 73 355 2.6 7.8 0.00 0.00 0.00 67 1006.3
20260506005743 73 31 1.7 7.8 0.00 0.00 0.00 67 1006.1
20260506005243 74 351 2.6 7.0 0.00 0.00 0.00 67 1005.9
20260506004741 74 355 2.6 7.0 0.00 0.00 0.00 66 1005.8
20260506004239 74 339 1.7 9.6 0.00 0.00 0.00 66 1005.8
20260506003739 74 0 2.6 9.6 0.00 0.00 0.00 66 1005.5
20260506003240 75 348 3.5 10.4 0.00 0.00 0.00 66 1005.3
20260506002736 76 331 3.5 10.4 0.00 0.00 0.00 65 1005.4
20260506002234 76 0 2.6 8.7 0.00 0.00 0.00 65 1005.3
20260506001733 76 348 2.6 8.7 0.00 0.00 0.00 64 1005.1
20260506001232 77 355 2.6 8.7 0.00 0.00 0.00 63 1005.2
20260506001004 77 325 3.5 8.7 0.00 0.00 0.00 63 1005.1
20260506000230 78 0 3.5 10.4 0.00 0.00 0.00 63 1005.0
20260505235730 78 355 3.5 10.4 0.00 0.00 0.00 62 1005.0
20260505235230 78 0 3.5 10.4 0.00 0.00 0.00 61 1005.0
20260505234954 79 324 3.5 10.4 0.00 0.00 0.00 62 1005.0
20260505234232 80 9 3.5 9.6 0.00 0.00 0.00 61 1004.8
20260505233952 80 339 3.5 10.4 0.00 0.00 0.00 60 1004.7
20260505233216 80 331 3.5 10.4 0.00 0.00 0.00 59 1004.7
20260505232943 81 340 3.5 10.4 0.00 0.00 0.00 58 1004.6
20260505232209 81 337 4.3 10.4 0.00 0.00 0.00 58 1004.7
20260505231708 82 315 3.5 10.4 0.00 0.00 0.00 58 1004.6
20260505231209 82 355 3.5 12.2 0.00 0.00 0.00 57 1004.4
20260505230709 84 344 3.5 12.2 0.00 0.00 0.00 56 1004.4
20260505230207 84 355 3.5 9.6 0.00 0.00 0.00 57 1004.4
20260505225706 85 350 3.5 8.7 0.00 0.00 0.00 56 1004.2
20260505225207 85 339 2.6 7.8 0.00 0.00 0.00 56 1004.0
20260505224706 86 351 2.6 7.0 0.00 0.00 0.00 53 1003.9
20260505224205 87 5 3.5 13.9 0.00 0.00 0.00 52 1003.7
20260505223705 87 338 4.3 13.9 0.00 0.00 0.00 51 1003.7
20260505223436 87 333 3.5 9.6 0.00 0.00 0.00 50 1003.8
20260505222705 87 315 2.6 8.7 0.00 0.00 0.00 50 1003.8
20260505222208 87 355 2.6 8.7 0.00 0.00 0.00 49 1003.7
20260505221703 89 355 3.5 8.7 0.00 0.00 0.00 49 1003.5
20260505221425 88 340 4.3 9.6 0.00 0.00 0.00 49 1003.6
20260505220702 88 22 3.5 10.4 0.00 0.00 0.00 49 1003.4
20260505220208 89 341 3.5 10.4 0.00 0.00 0.00 50 1003.4
20260505215927 90 16 4.3 10.4 0.00 0.00 0.00 48 1003.4
20260505215159 92 259 3.5 10.4 0.00 0.00 0.00 46 1003.3
20260505214656 92 263 3.5 7.0 0.00 0.00 0.00 46 1003.5
20260505214142 93 343 4.3 8.7 0.00 0.00 0.00 45 1003.5
20260505213906 92 257 5.2 12.2 0.00 0.00 0.00 45 1003.4
20260505213141 93 233 4.3 12.2 0.00 0.00 0.00 45 1003.3
20260505212913 93 256 3.5 7.8 0.00 0.00 0.00 48 1003.4
20260505212144 92 294 5.2 9.6 0.00 0.00 0.00 46 1003.4
20260505211642 92 214 5.2 9.6 0.00 0.00 0.00 47 1003.5
20260505211141 92 225 4.3 8.7 0.00 0.00 0.00 49 1003.6
20260505210639 93 281 4.3 8.7 0.00 0.00 0.00 49 1003.7
20260505210629 92 253 5.2 12.2 0.00 0.00 0.00 48 1003.7
20260505205637 92 240 6.1 12.2 0.00 0.00 0.00 48 1003.7
20260505205358 92 212 5.2 10.4 0.00 0.00 0.00 48 1003.8
20260505204637 92 285 4.3 9.6 0.00 0.00 0.00 49 1003.9
20260505204136 92 308 5.2 10.4 0.00 0.00 0.00 50 1003.9
20260505203636 91 241 4.3 10.4 0.00 0.00 0.00 52 1004.0
20260505203134 92 244 5.2 12.2 0.00 0.00 0.00 53 1004.0
20260505202633 91 228 6.1 12.2 0.00 0.00 0.00 52 1004.1
20260505202132 91 241 5.2 11.3 0.00 0.00 0.00 51 1004.2
20260505201633 91 229 5.2 12.2 0.00 0.00 0.00 51 1004.4
20260505201130 91 235 6.1 12.2 0.00 0.00 0.00 52 1004.2
20260505200628 91 297 6.1 12.2 0.00 0.00 0.00 52 1004.2
20260505200122 92 227 5.2 11.3 0.00 0.00 0.00 56 1004.5
20260505195621 91 222 5.2 11.3 0.00 0.00 0.00 54 1004.5
20260505195120 91 232 4.3 8.7 0.00 0.00 0.00 55 1004.4
20260505194842 91 248 4.3 8.7 0.00 0.00 0.00 58 1004.5
20260505194120 90 231 4.3 9.6 0.00 0.00 0.00 57 1004.5
20260505193620 89 244 6.1 12.2 0.00 0.00 0.00 57 1004.5
20260505193120 89 242 7.0 12.2 0.00 0.00 0.00 59 1004.5
20260505192620 89 237 7.0 13.0 0.00 0.00 0.00 59 1004.8
20260505192120 89 227 7.8 15.6 0.00 0.00 0.00 57 1004.6
20260505191620 88 234 8.7 15.6 0.00 0.00 0.00 61 1004.6
20260505191121 87 222 7.8 14.8 0.00 0.00 0.00 59 1004.6
20260505190620 88 181 6.1 13.0 0.00 0.00 0.00 59 1004.5
20260505190121 88 248 5.2 10.4 0.00 0.00 0.00 60 1004.6
20260505185619 87 234 6.1 10.4 0.00 0.00 0.00 62 1004.5
20260505185345 87 103 7.0 11.3 0.00 0.00 0.00 63 1004.8
20260505184620 86 217 7.0 12.2 0.00 0.00 0.00 62 1004.7
20260505184120 86 253 7.0 13.0 0.00 0.00 0.00 63 1004.8
20260505183843 85 237 6.1 13.9 0.00 0.00 0.00 64 1004.8
20260505183344 85 217 6.1 13.9 0.00 0.00 0.00 63 1004.8
20260505182616 85 243 7.0 11.3 0.00 0.00 0.00 65 1004.9
20260505182117 85 243 7.0 11.3 0.00 0.00 0.00 66 1004.8
20260505181617 85 244 7.0 12.2 0.00 0.00 0.00 65 1004.9
20260505181118 84 212 6.1 12.2 0.00 0.00 0.00 64 1004.9
20260505180620 84 239 7.0 13.9 0.00 0.00 0.00 66 1004.9
20260505180117 84 207 7.0 14.8 0.00 0.00 0.00 65 1005.0
20260505175616 83 225 7.8 14.8 0.00 0.00 0.00 66 1005.0
20260505175114 83 238 6.1 13.9 0.00 0.00 0.00 68 1005.0
20260505174614 83 223 5.2 13.0 0.00 0.00 0.00 66 1004.9
20260505174114 83 211 5.2 13.0 0.00 0.00 0.00 65 1005.0
20260505173610 83 234 7.0 14.8 0.00 0.00 0.00 67 1005.0
20260505173110 83 231 7.8 14.8 0.00 0.00 0.00 66 1005.0
20260505172610 83 246 7.8 13.9 0.00 0.00 0.00 66 1005.1
20260505172110 82 246 7.0 13.9 0.00 0.00 0.00 67 1005.1
20260505171609 82 209 6.1 12.2 0.00 0.00 0.00 67 1005.1
20260505171110 82 223 6.1 11.3 0.00 0.00 0.00 69 1005.4
20260505170610 82 243 6.1 11.3 0.00 0.00 0.00 67 1005.0
20260505170110 82 205 6.1 13.9 0.00 0.00 0.00 66 1005.1
20260505165610 82 226 7.0 14.8 0.00 0.00 0.00 66 1005.0
20260505165106 83 235 6.1 14.8 0.00 0.00 0.00 66 1004.9
20260505164606 83 233 6.1 13.0 0.00 0.00 0.00 68 1005.0
20260505164106 82 225 6.1 13.0 0.00 0.00 0.00 70 1005.0
20260505163606 80 213 6.1 13.0 0.00 0.00 0.00 71 1005.0
20260505163107 80 188 7.0 13.0 0.00 0.00 0.00 70 1005.0
20260505162606 80 249 7.0 13.0 0.00 0.00 0.00 71 1004.9
20260505162106 81 224 7.8 14.8 0.00 0.00 0.00 70 1004.9
20260505161606 80 224 8.7 14.8 0.00 0.00 0.00 71 1005.0
20260505161106 80 244 7.8 14.8 0.00 0.00 0.00 70 1005.0
20260505160602 80 228 7.0 15.6 0.00 0.00 0.00 71 1004.8
20260505153101 77 208 6.1 12.2 0.00 0.00 0.00 75 1004.5
20260505152600 77 217 6.1 12.2 0.00 0.00 0.00 75 1004.7
20260505152059 77 236 4.3 12.2 0.00 0.00 0.00 74 1004.8
20260505151823 77 219 6.1 15.6 0.00 0.00 0.00 75 1004.8
20260505151056 76 225 7.0 15.6 0.00 0.00 0.00 76 1004.9
20260505150556 76 200 7.0 13.9 0.00 0.00 0.00 77 1004.9
20260505150319 76 238 7.0 15.6 0.00 0.00 0.00 76 1004.8
20260505140538 74 180 7.0 15.6 0.00 0.00 0.00 80 1004.9
20260505125014 71 211 5.2 9.6 0.00 0.00 0.00 85 1004.1
20260505124511 70 217 5.2 11.3 0.00 0.00 0.00 85 1004.0
20260505124010 70 215 6.1 12.2 0.00 0.00 0.00 85 1004.0
20260505123726 70 205 6.1 12.2 0.00 0.00 0.00 85 1003.9
20260505123228 70 196 6.1 12.2 0.00 0.00 0.00 85 1003.9
20260505122505 70 219 6.1 12.2 0.00 0.00 0.00 85 1003.8
20260505122004 70 206 6.1 12.2 0.00 0.00 0.00 85 1003.8
20260505121503 70 209 6.1 13.0 0.00 0.00 0.00 85 1003.7
20260505121003 70 216 5.2 13.0 0.00 0.00 0.00 85 1003.6
20260505120503 70 227 6.1 10.4 0.00 0.00 0.00 85 1003.4
20260505120003 70 221 6.1 10.4 0.00 0.00 0.00 85 1003.5
20260505115501 70 146 6.1 12.2 0.00 0.00 0.00 85 1003.6
20260505115000 70 211 6.1 12.2 0.00 0.00 0.00 85 1003.7
20260505114504 70 192 6.1 11.3 0.00 0.00 0.00 85 1003.6
20260505114004 70 210 5.2 11.3 0.00 0.00 0.00 85 1003.6
20260505113507 70 210 6.1 12.2 0.00 0.00 0.00 85 1003.5
20260505113005 70 128 5.2 12.2 0.00 0.00 0.00 85 1003.5
20260505112726 70 238 5.2 12.2 0.00 0.00 0.00 85 1003.5
20260505112004 70 219 6.1 12.2 0.00 0.00 0.00 85 1003.4
20260505111736 70 215 6.1 11.3 0.00 0.00 0.00 85 1003.5
20260505111004 70 217 6.1 11.3 0.00 0.00 0.00 85 1003.5
20260505110505 70 138 6.1 11.3 0.00 0.00 0.00 85 1003.5
20260505102005 70 184 5.2 12.2 0.00 0.00 0.00 84 1003.5
20260505101502 70 209 5.2 13.9 0.00 0.00 0.00 83 1003.6
20260505101001 70 250 5.2 13.9 0.00 0.00 0.00 83 1003.5
20260505100501 70 200 5.2 10.4 0.00 0.00 0.00 83 1003.6
20260505100230 70 225 7.0 14.8 0.00 0.00 0.00 83 1003.5
20260505095453 71 224 7.0 15.6 0.00 0.00 0.00 83 1003.6
20260505094949 71 211 6.1 15.6 0.00 0.00 0.00 83 1003.6
20260505094449 71 188 5.2 12.2 0.00 0.00 0.00 83 1003.4
20260505093949 71 220 6.1 14.8 0.00 0.00 0.00 83 1003.5
20260505093449 71 207 6.1 14.8 0.00 0.00 0.00 82 1003.7
20260505092949 71 224 6.1 14.8 0.00 0.00 0.00 82 1003.7
20260505092449 71 229 6.1 13.9 0.00 0.00 0.00 82 1003.6
20260505091949 71 217 5.2 13.9 0.00 0.00 0.00 82 1003.7
20260505091450 71 167 6.1 12.2 0.00 0.00 0.00 82 1003.8
20260505091220 71 216 6.1 12.2 0.00 0.00 0.00 81 1003.9
20260505090449 71 219 6.1 13.9 0.00 0.00 0.00 81 1004.0
20260505090217 72 234 6.1 13.9 0.00 0.00 0.00 81 1004.0
20260505085450 72 208 6.1 13.9 0.00 0.00 0.00 81 1003.9
20260505084949 72 205 6.1 13.9 0.00 0.00 0.00 80 1003.9
20260505084454 72 211 6.1 13.9 0.00 0.00 0.00 80 1004.0
20260505083952 72 224 6.1 13.9 0.00 0.00 0.00 80 1004.1
20260505083452 72 218 6.1 13.9 0.00 0.00 0.00 80 1004.0
20260505082950 72 220 6.1 13.9 0.00 0.00 0.00 80 1004.0
20260505082445 72 223 6.1 15.6 0.00 0.00 0.00 79 1004.0
20260505081944 72 212 6.1 15.6 0.00 0.00 0.00 79 1003.9
20260505081710 72 214 5.2 15.6 0.00 0.00 0.00 79 1003.9
20260505080945 72 77 5.2 13.9 0.00 0.00 0.00 79 1003.9
20260505080445 73 193 5.2 13.9 0.00 0.00 0.00 78 1004.0
20260505075945 73 234 5.2 13.9 0.00 0.00 0.00 78 1003.9
20260505075709 73 205 4.3 13.9 0.00 0.00 0.00 78 1004.0
20260505074945 73 216 4.3 10.4 0.00 0.00 0.00 78 1004.0
20260505074443 73 213 5.2 12.2 0.00 0.00 0.00 77 1004.1
20260505073943 73 205 5.2 12.2 0.00 0.00 0.00 77 1004.4
20260505073442 73 232 5.2 11.3 0.00 0.00 0.00 77 1004.5
20260505072944 73 192 4.3 11.3 0.00 0.00 0.00 76 1004.5
20260505072443 73 206 4.3 12.2 0.00 0.00 0.00 76 1004.7
20260505071938 73 212 5.2 12.2 0.00 0.00 0.00 75 1004.8
20260505071439 73 214 5.2 13.9 0.00 0.00 0.00 75 1004.9
20260505070939 73 208 5.2 13.9 0.00 0.00 0.00 75 1005.0
20260505070735 73 196 6.1 13.0 0.00 0.00 0.00 75 1005.0
20260505065939 74 221 5.2 10.4 0.00 0.00 0.00 74 1005.1
20260505065438 74 213 6.1 11.3 0.00 0.00 0.00 74 1005.1
20260505064939 74 224 6.1 11.3 0.00 0.00 0.00 74 1005.2
20260505064707 74 234 6.1 13.9 0.00 0.00 0.00 74 1005.2
20260505063939 74 223 6.1 13.9 0.00 0.00 0.00 73 1005.4
20260505063435 74 207 5.2 13.0 0.00 0.00 0.00 73 1005.4
20260505062935 74 225 5.2 13.9 0.00 0.00 0.00 73 1005.4
20260505062434 74 223 5.2 13.9 0.00 0.00 0.00 73 1005.4
20260505061934 74 161 5.2 10.4 0.00 0.00 0.00 72 1005.4
20260505061435 74 207 4.3 9.6 0.00 0.00 0.00 72 1005.5
20260505060935 74 225 4.3 11.3 0.00 0.00 0.00 72 1005.4
20260505060705 74 221 4.3 16.5 0.00 0.00 0.00 71 1005.5
20260505055935 75 175 4.3 16.5 0.00 0.00 0.00 71 1005.5
20260505055435 75 157 4.3 11.3 0.00 0.00 0.00 70 1005.4
20260505054931 75 201 4.3 9.6 0.00 0.00 0.00 70 1005.5
20260505054431 75 182 5.2 10.4 0.00 0.00 0.00 70 1005.4
20260505053930 75 215 4.3 12.2 0.00 0.00 0.00 69 1005.3
20260505053657 75 211 4.3 13.0 0.00 0.00 0.00 69 1005.3
20260505052928 76 205 4.3 13.0 0.00 0.00 0.00 69 1005.4
20260505052429 76 205 4.3 12.2 0.00 0.00 0.00 69 1005.4
20260505051929 75 199 4.3 12.2 0.00 0.00 0.00 69 1005.3
20260505051429 75 205 3.5 8.7 0.00 0.00 0.00 70 1005.3
20260505050929 75 223 3.5 7.8 0.00 0.00 0.00 70 1005.3
20260505050429 75 221 3.5 7.8 0.00 0.00 0.00 70 1005.5
20260505041421 75 199 3.5 9.6 0.00 0.00 0.00 70 1005.7
20260505040919 75 210 3.5 9.6 0.00 0.00 0.00 70 1005.7
20260505040417 75 217 3.5 7.8 0.00 0.00 0.00 70 1005.8
20260505035916 75 230 3.5 10.4 0.00 0.00 0.00 70 1005.7
20260505035416 75 199 4.3 10.4 0.00 0.00 0.00 70 1005.7
20260505034916 75 201 4.3 9.6 0.00 0.00 0.00 70 1005.7
20260505034416 75 219 4.3 8.7 0.00 0.00 0.00 70 1005.8
20260505033917 75 221 4.3 8.7 0.00 0.00 0.00 70 1005.7
20260505033417 75 200 4.3 9.6 0.00 0.00 0.00 70 1005.6
20260505032914 75 201 4.3 9.6 0.00 0.00 0.00 70 1005.7
20260505032414 75 209 4.3 10.4 0.00 0.00 0.00 70 1005.6
20260505031914 75 210 3.5 10.4 0.00 0.00 0.00 70 1005.6
20260505031413 75 214 3.5 7.8 0.00 0.00 0.00 69 1005.7
20260505031134 75 214 4.3 13.0 0.00 0.00 0.00 69 1005.6
20260505030412 76 217 4.3 13.0 0.00 0.00 0.00 69 1005.7
20260505025912 76 217 3.5 10.4 0.00 0.00 0.00 69 1005.8
20260505025410 76 219 3.5 8.7 0.00 0.00 0.00 69 1005.9
20260505024910 76 150 3.5 7.8 0.00 0.00 0.00 68 1005.9
20260505024408 76 205 2.6 8.7 0.00 0.00 0.00 68 1005.9
20260505023905 76 194 3.5 8.7 0.00 0.00 0.00 68 1005.9
20260505023404 76 212 3.5 8.7 0.00 0.00 0.00 68 1005.7
20260505022904 76 157 2.6 8.7 0.00 0.00 0.00 68 1005.7
20260505022404 76 205 3.5 7.8 0.00 0.00 0.00 68 1005.8
20260505021902 76 191 2.6 7.8 0.00 0.00 0.00 68 1005.8
20260505021401 76 167 3.5 13.0 0.00 0.00 0.00 68 1005.6
20260505021126 76 219 3.5 13.0 0.00 0.00 0.00 68 1005.5
20260505020402 76 148 3.5 10.4 0.00 0.00 0.00 67 1005.6
20260505015902 76 163 2.6 10.4 0.00 0.00 0.00 67 1005.7
20260505015401 76 223 2.6 7.0 0.00 0.00 0.00 67 1005.7
20260505015122 76 228 3.5 7.8 0.00 0.00 0.00 67 1005.6